,,PA_Meas_PMT16A,,PR_Meas_QMR101_102,,RH_Meas_QMH101,,SR_Meas_QMS101,,TA_Meas_QMH101,,GenWind,,GenWind,
time,status,PA,status,PR,status,RH,status,SR,status,TA,status,DirAvg,status,SpdAvg,
2012-07-12, 00:00:04,VALID,918.409,VALID,0,VALID,97.2748,VALID,0.107441,VALID,18.8658,VALID,119,VALID,0,
2012-07-12, 00:01:04,VALID,918.415,VALID,0,VALID,97.29,VALID,0,VALID,18.8658,VALID,117,VALID,0,
2012-07-12, 00:02:04,VALID,918.444,VALID,0,VALID,97.2595,VALID,0,VALID,18.8463,VALID,129,VALID,0,
2012-07-12, 00:03:04,VALID,918.463,VALID,0,VALID,97.2519,VALID,0.107441,VALID,18.8658,VALID,123,VALID,0,
2012-07-12, 00:04:04,VALID,918.472,VALID,0,VALID,97.2672,VALID,0.107441,VALID,18.8867,VALID,121,VALID,0,
2012-07-12, 00:05:04,VALID,918.461,VALID,0,VALID,97.2672,VALID,0.107441,VALID,18.8463,VALID,122,VALID,0,
2012-07-12, 00:06:04,VALID,918.503,VALID,0,VALID,97.2595,VALID,0.107441,VALID,18.8463,VALID,124,VALID,0,
2012-07-12, 00:07:04,VALID,918.465,VALID,0,VALID,97.2595,VALID,0,VALID,18.8463,VALID,109,VALID,0,
2012-07-12, 00:08:04,VALID,918.494,VALID,0,VALID,97.2443,VALID,0.107441,VALID,18.8463,VALID,122,VALID,0,
2012-07-12, 00:09:04,VALID,918.469,VALID,0,VALID,97.2519,VALID,0.107441,VALID,18.8463,VALID,118,VALID,0,
2012-07-12, 00:10:04,VALID,918.491,VALID,0,VALID,97.2748,VALID,0,VALID,18.8672,VALID,119,VALID,0,
2012-07-12, 00:11:04,VALID,918.48,VALID,0,VALID,97.2748,VALID,0,VALID,18.8477,VALID,110,VALID,0,
2012-07-12, 00:12:04,VALID,918.476,VALID,0,VALID,97.2443,VALID,0,VALID,18.8687,VALID,110,VALID,0,
2012-07-12, 00:13:04,VALID,918.483,VALID,0,VALID,97.2519,VALID,0,VALID,18.8687,VALID,110,VALID,0,
2012-07-12, 00:14:04,VALID,918.469,VALID,0,VALID,97.229,VALID,0,VALID,18.8492,VALID,130,VALID,0,
2012-07-12, 00:15:04,VALID,918.475,VALID,0,VALID,97.2214,VALID,0,VALID,18.8282,VALID,130,VALID,0,
2012-07-12, 00:16:04,VALID,918.496,VALID,0,VALID,97.2138,VALID,0,VALID,18.8282,VALID,131,VALID,0,
2012-07-12, 00:17:04,VALID,918.476,VALID,0,VALID,97.2062,VALID,0,VALID,18.8687,VALID,131,VALID,0,
2012-07-12, 00:18:04,VALID,918.469,VALID,0,VALID,97.1909,VALID,0,VALID,18.8492,VALID,130,VALID,0,
2012-07-12, 00:19:04,VALID,918.493,VALID,0,VALID,97.2062,VALID,0,VALID,18.8282,VALID,131,VALID,0,
2012-07-12, 00:20:04,VALID,918.463,VALID,0,VALID,97.2062,VALID,0,VALID,18.8087,VALID,131,VALID,0,
2012-07-12, 00:21:04,VALID,918.47,VALID,0,VALID,97.2214,VALID,0,VALID,18.8087,VALID,131,VALID,0,
2012-07-12, 00:22:04,VALID,918.452,VALID,0,VALID,97.1833,VALID,0,VALID,18.8087,VALID,131,VALID,0,
2012-07-12, 00:23:04,VALID,918.437,VALID,0,VALID,97.1681,VALID,0,VALID,18.7892,VALID,130,VALID,0,
2012-07-12, 00:24:04,VALID,918.438,VALID,0,VALID,97.2062,VALID,0,VALID,18.8102,VALID,131,VALID,0,
2012-07-12, 00:25:04,VALID,918.421,VALID,0,VALID,97.2062,VALID,0,VALID,18.7878,VALID,131,VALID,0,
2012-07-12, 00:26:04,VALID,918.407,VALID,0,VALID,97.1909,VALID,0,VALID,18.8087,VALID,131,VALID,0,
2012-07-12, 00:27:04,VALID,918.427,VALID,0,VALID,97.1909,VALID,0,VALID,18.7878,VALID,131,VALID,0,
2012-07-12, 00:28:04,VALID,918.428,VALID,0,VALID,97.1604,VALID,0.107441,VALID,18.7683,VALID,130,VALID,0,
2012-07-12, 00:29:04,VALID,918.399,VALID,0,VALID,97.1452,VALID,0,VALID,18.7683,VALID,131,VALID,0,
2012-07-12, 00:30:04,VALID,918.428,VALID,0,VALID,97.1604,VALID,0.107441,VALID,18.7488,VALID,131,VALID,0,
2012-07-12, 00:31:04,VALID,918.435,VALID,0,VALID,97.1452,VALID,0.107441,VALID,18.7892,VALID,131,VALID,0,
2012-07-12, 00:32:04,VALID,918.413,VALID,0,VALID,97.1376,VALID,0,VALID,18.7488,VALID,131,VALID,0,
2012-07-12, 00:33:04,VALID,918.438,VALID,0,VALID,97.1299,VALID,0,VALID,18.7503,VALID,131,VALID,0,
2012-07-12, 00:34:04,VALID,918.43,VALID,0,VALID,97.1376,VALID,0,VALID,18.7113,VALID,131,VALID,0,
2012-07-12, 00:35:04,VALID,918.419,VALID,0,VALID,97.1528,VALID,0,VALID,18.6903,VALID,131,VALID,0,
2012-07-12, 00:36:04,VALID,918.41,VALID,0,VALID,97.1452,VALID,0,VALID,18.7113,VALID,130,VALID,0,
2012-07-12, 00:37:04,VALID,918.405,VALID,0,VALID,97.1376,VALID,0,VALID,18.6918,VALID,131,VALID,0,
2012-07-12, 00:38:04,VALID,918.436,VALID,0,VALID,97.1376,VALID,0.107441,VALID,18.6903,VALID,131,VALID,0,
2012-07-12, 00:39:04,VALID,918.416,VALID,0,VALID,97.1376,VALID,0.107441,VALID,18.6708,VALID,130,VALID,0,
2012-07-12, 00:40:04,VALID,918.415,VALID,0,VALID,97.1452,VALID,0,VALID,18.7113,VALID,130,VALID,0,
2012-07-12, 00:41:04,VALID,918.409,VALID,0,VALID,97.1452,VALID,0,VALID,18.6932,VALID,130,VALID,0,
2012-07-12, 00:42:04,VALID,918.411,VALID,0,VALID,97.1223,VALID,0,VALID,18.6932,VALID,130,VALID,0,
2012-07-12, 00:43:04,VALID,918.41,VALID,0,VALID,97.1376,VALID,0,VALID,18.7322,VALID,131,VALID,0,
2012-07-12, 00:44:04,VALID,918.403,VALID,0,VALID,97.0994,VALID,0,VALID,18.6918,VALID,131,VALID,0,
2012-07-12, 00:45:04,VALID,918.394,VALID,0,VALID,97.0842,VALID,0,VALID,18.7127,VALID,130,VALID,0,
2012-07-12, 00:46:04,VALID,918.392,VALID,0,VALID,97.0766,VALID,0,VALID,18.7113,VALID,130,VALID,0,
2012-07-12, 00:47:04,VALID,918.384,VALID,0,VALID,97.069,VALID,0,VALID,18.7127,VALID,131,VALID,0,
2012-07-12, 00:48:04,VALID,918.359,VALID,0,VALID,97.0994,VALID,0,VALID,18.6918,VALID,131,VALID,0,
2012-07-12, 00:49:04,VALID,918.382,VALID,0,VALID,97.0842,VALID,0,VALID,18.6723,VALID,131,VALID,0,
2012-07-12, 00:50:04,VALID,918.337,VALID,0,VALID,97.1071,VALID,0,VALID,18.6918,VALID,131,VALID,0,
2012-07-12, 00:51:04,VALID,918.323,VALID,0,VALID,97.0994,VALID,0,VALID,18.6723,VALID,131,VALID,0,
2012-07-12, 00:52:04,VALID,918.287,VALID,0,VALID,97.0613,VALID,0,VALID,18.6932,VALID,131,VALID,0,
2012-07-12, 00:53:04,VALID,918.319,VALID,0,VALID,97.0766,VALID,0,VALID,18.6528,VALID,130,VALID,0,
2012-07-12, 00:54:04,VALID,918.278,VALID,0,VALID,97.069,VALID,0,VALID,18.6333,VALID,130,VALID,0,
2012-07-12, 00:55:04,VALID,918.263,VALID,0,VALID,97.0766,VALID,0,VALID,18.6528,VALID,130,VALID,0,
2012-07-12, 00:56:04,VALID,918.249,VALID,0,VALID,97.069,VALID,0,VALID,18.6333,VALID,131,VALID,0,
2012-07-12, 00:57:04,VALID,918.279,VALID,0,VALID,97.1071,VALID,0,VALID,18.6333,VALID,131,VALID,0,
2012-07-12, 00:58:04,VALID,918.231,VALID,0,VALID,97.1071,VALID,0,VALID,18.6542,VALID,130,VALID,0,
2012-07-12, 00:59:04,VALID,918.226,VALID,0,VALID,97.0918,VALID,0,VALID,18.6333,VALID,130,VALID,0,
2012-07-12, 01:00:04,VALID,918.234,VALID,0,VALID,97.1147,VALID,0,VALID,18.6333,VALID,131,VALID,0,
2012-07-12, 01:01:04,VALID,918.238,VALID,0,VALID,97.1147,VALID,0,VALID,18.6333,VALID,131,VALID,0,
2012-07-12, 01:02:04,VALID,918.234,VALID,0,VALID,97.1147,VALID,0,VALID,18.6333,VALID,131,VALID,0,
2012-07-12, 01:03:04,VALID,918.244,VALID,0,VALID,97.1147,VALID,0,VALID,18.6138,VALID,131,VALID,0,
2012-07-12, 01:04:04,VALID,918.262,VALID,0,VALID,97.1071,VALID,0,VALID,18.6333,VALID,130,VALID,0,
2012-07-12, 01:05:04,VALID,918.242,VALID,0,VALID,97.0918,VALID,0,VALID,18.6528,VALID,131,VALID,0,
2012-07-12, 01:06:04,VALID,918.266,VALID,0,VALID,97.0766,VALID,0,VALID,18.6528,VALID,131,VALID,0,
2012-07-12, 01:07:04,VALID,918.234,VALID,0,VALID,97.069,VALID,0,VALID,18.6542,VALID,130,VALID,0,
2012-07-12, 01:08:04,VALID,918.214,VALID,0,VALID,97.0918,VALID,0,VALID,18.6333,VALID,131,VALID,0,
2012-07-12, 01:09:04,VALID,918.223,VALID,0,VALID,97.069,VALID,0,VALID,18.6333,VALID,131,VALID,0,
2012-07-12, 01:10:04,VALID,918.191,VALID,0,VALID,97.0537,VALID,0,VALID,18.6138,VALID,131,VALID,0,
2012-07-12, 01:11:04,VALID,918.186,VALID,0,VALID,97.0308,VALID,0,VALID,18.5734,VALID,130,VALID,0,
2012-07-12, 01:12:04,VALID,918.183,VALID,0,VALID,97.0461,VALID,0.107441,VALID,18.5943,VALID,130,VALID,0,
2012-07-12, 01:13:04,VALID,918.134,VALID,0,VALID,97.0461,VALID,0,VALID,18.5748,VALID,130,VALID,0,
2012-07-12, 01:14:04,VALID,918.112,VALID,0,VALID,97.0461,VALID,0.107441,VALID,18.5748,VALID,130,VALID,0,
2012-07-12, 01:15:04,VALID,918.141,VALID,0,VALID,97.0537,VALID,0.107441,VALID,18.5553,VALID,131,VALID,0,
2012-07-12, 01:16:04,VALID,918.075,VALID,0,VALID,97.069,VALID,0.107441,VALID,18.5553,VALID,131,VALID,0,
2012-07-12, 01:17:04,VALID,918.068,VALID,0,VALID,97.069,VALID,0.107441,VALID,18.5344,VALID,130,VALID,0,
2012-07-12, 01:18:04,VALID,918.058,VALID,0,VALID,97.0461,VALID,0.107441,VALID,18.5344,VALID,131,VALID,0,
2012-07-12, 01:19:04,VALID,918.014,VALID,0,VALID,97.0385,VALID,0,VALID,18.5149,VALID,131,VALID,0,
2012-07-12, 01:20:04,VALID,918.007,VALID,0,VALID,97.0461,VALID,0,VALID,18.5358,VALID,130,VALID,0,
2012-07-12, 01:21:04,VALID,918.05,VALID,0,VALID,97.0156,VALID,0.107441,VALID,18.5149,VALID,131,VALID,0,
2012-07-12, 01:22:04,VALID,918.031,VALID,0,VALID,97.0308,VALID,0,VALID,18.5358,VALID,131,VALID,0,
2012-07-12, 01:23:04,VALID,918.019,VALID,0,VALID,97.008,VALID,0.107441,VALID,18.4954,VALID,130,VALID,0,
2012-07-12, 01:24:04,VALID,917.984,VALID,0,VALID,97.0003,VALID,0.107441,VALID,18.5149,VALID,131,VALID,0,
2012-07-12, 01:25:04,VALID,918,VALID,0,VALID,97.008,VALID,0,VALID,18.5163,VALID,130,VALID,0,
2012-07-12, 01:26:04,VALID,917.974,VALID,0,VALID,96.9851,VALID,0,VALID,18.4968,VALID,130,VALID,0,
2012-07-12, 01:27:04,VALID,917.947,VALID,0,VALID,96.9775,VALID,0,VALID,18.4968,VALID,131,VALID,0,
2012-07-12, 01:28:04,VALID,917.942,VALID,0,VALID,96.947,VALID,0,VALID,18.4968,VALID,131,VALID,0,
2012-07-12, 01:29:04,VALID,917.93,VALID,0,VALID,96.9546,VALID,0,VALID,18.5177,VALID,131,VALID,0,
2012-07-12, 01:30:04,VALID,917.944,VALID,0,VALID,96.9317,VALID,0,VALID,18.5177,VALID,131,VALID,0,
2012-07-12, 01:31:04,VALID,917.92,VALID,0,VALID,96.9317,VALID,0,VALID,18.4982,VALID,114,VALID,0,
2012-07-12, 01:32:04,VALID,917.921,VALID,0,VALID,96.9394,VALID,0,VALID,18.4773,VALID,114,VALID,0,
2012-07-12, 01:33:04,VALID,917.907,VALID,0,VALID,96.9241,VALID,0,VALID,18.4968,VALID,114,VALID,0,
2012-07-12, 01:34:04,VALID,917.93,VALID,0,VALID,96.9394,VALID,0,VALID,18.4982,VALID,114,VALID,0,
2012-07-12, 01:35:04,VALID,917.901,VALID,0,VALID,96.947,VALID,0,VALID,18.4982,VALID,115,VALID,0,
2012-07-12, 01:36:04,VALID,917.898,VALID,0,VALID,96.947,VALID,0,VALID,18.4773,VALID,121,VALID,0,
2012-07-12, 01:37:04,VALID,917.874,VALID,0,VALID,96.9927,VALID,0,VALID,18.4787,VALID,121,VALID,0,
2012-07-12, 01:38:04,VALID,917.856,VALID,0,VALID,97.0003,VALID,0,VALID,18.4773,VALID,121,VALID,0,
2012-07-12, 01:39:04,VALID,917.83,VALID,0,VALID,97.0156,VALID,0,VALID,18.4968,VALID,121,VALID,0,
2012-07-12, 01:40:04,VALID,917.805,VALID,0,VALID,97.0156,VALID,0,VALID,18.5163,VALID,121,VALID,0,
2012-07-12, 01:41:04,VALID,917.779,VALID,0,VALID,97.0385,VALID,0,VALID,18.5163,VALID,121,VALID,0,
2012-07-12, 01:42:04,VALID,917.743,VALID,0,VALID,97.0537,VALID,0,VALID,18.5163,VALID,120,VALID,0,
2012-07-12, 01:43:04,VALID,917.732,VALID,0,VALID,97.0461,VALID,0,VALID,18.4954,VALID,121,VALID,0,
2012-07-12, 01:44:04,VALID,917.743,VALID,0,VALID,97.0461,VALID,0,VALID,18.4759,VALID,121,VALID,0,
2012-07-12, 01:45:04,VALID,917.706,VALID,0,VALID,97.0461,VALID,0,VALID,18.4759,VALID,124,VALID,0,
2012-07-12, 01:46:04,VALID,917.718,VALID,0,VALID,97.1147,VALID,0.107441,VALID,18.4954,VALID,151,VALID,0,
2012-07-12, 01:47:04,VALID,917.717,VALID,0,VALID,97.1376,VALID,0,VALID,18.5149,VALID,151,VALID,0,
2012-07-12, 01:48:04,VALID,917.698,VALID,0,VALID,97.1681,VALID,0,VALID,18.5163,VALID,151,VALID,0,
2012-07-12, 01:49:04,VALID,917.696,VALID,0,VALID,97.1528,VALID,0,VALID,18.5163,VALID,140,VALID,0,
2012-07-12, 01:50:04,VALID,917.691,VALID,0,VALID,97.1757,VALID,0,VALID,18.5163,VALID,141,VALID,0,
2012-07-12, 01:51:04,VALID,917.706,VALID,0,VALID,97.1833,VALID,0.107441,VALID,18.4968,VALID,141,VALID,0,
2012-07-12, 01:52:04,VALID,917.716,VALID,0,VALID,97.1757,VALID,0,VALID,18.4968,VALID,141,VALID,0,
2012-07-12, 01:53:04,VALID,917.71,VALID,0,VALID,97.1986,VALID,0,VALID,18.4759,VALID,141,VALID,0,
2012-07-12, 01:54:04,VALID,917.719,VALID,0,VALID,97.2138,VALID,0,VALID,18.4968,VALID,141,VALID,0,
2012-07-12, 01:55:04,VALID,917.709,VALID,0,VALID,97.2214,VALID,0,VALID,18.4982,VALID,141,VALID,0,
2012-07-12, 01:56:04,VALID,917.724,VALID,0,VALID,97.2062,VALID,0,VALID,18.4982,VALID,141,VALID,0,
2012-07-12, 01:57:04,VALID,917.717,VALID,0,VALID,97.2138,VALID,0,VALID,18.4787,VALID,126,VALID,0,
2012-07-12, 01:58:04,VALID,917.727,VALID,0,VALID,97.2214,VALID,0,VALID,18.4578,VALID,128,VALID,0,
2012-07-12, 01:59:04,VALID,917.701,VALID,0,VALID,97.2367,VALID,0,VALID,18.4982,VALID,139,VALID,0,
2012-07-12, 02:00:04,VALID,917.73,VALID,0,VALID,97.2519,VALID,0,VALID,18.4787,VALID,139,VALID,0,
2012-07-12, 02:01:04,VALID,917.697,VALID,0,VALID,97.229,VALID,0,VALID,18.4592,VALID,139,VALID,0,
2012-07-12, 02:02:04,VALID,917.672,VALID,0,VALID,97.2367,VALID,0,VALID,18.4982,VALID,139,VALID,0,
2012-07-12, 02:03:04,VALID,917.693,VALID,0,VALID,97.2595,VALID,0,VALID,18.4982,VALID,139,VALID,0,
2012-07-12, 02:04:04,VALID,917.685,VALID,0,VALID,97.229,VALID,0,VALID,18.4982,VALID,139,VALID,0,
2012-07-12, 02:05:04,VALID,917.657,VALID,0,VALID,97.2138,VALID,0,VALID,18.4787,VALID,139,VALID,0,
2012-07-12, 02:06:04,VALID,917.654,VALID,0,VALID,97.229,VALID,0,VALID,18.4787,VALID,130,VALID,0,
2012-07-12, 02:07:04,VALID,917.646,VALID,0,VALID,97.2367,VALID,0,VALID,18.4787,VALID,143,VALID,0,
2012-07-12, 02:08:04,VALID,917.652,VALID,0,VALID,97.2367,VALID,0,VALID,18.4787,VALID,143,VALID,0,
2012-07-12, 02:09:04,VALID,917.634,VALID,0,VALID,97.2595,VALID,0,VALID,18.4787,VALID,143,VALID,0,
2012-07-12, 02:10:04,VALID,917.652,VALID,0,VALID,97.2443,VALID,0,VALID,18.4578,VALID,143,VALID,0,
2012-07-12, 02:11:04,VALID,917.624,VALID,0,VALID,97.2443,VALID,0,VALID,18.4773,VALID,143,VALID,0,
2012-07-12, 02:12:04,VALID,917.625,VALID,0,VALID,97.2519,VALID,0,VALID,18.4968,VALID,143,VALID,0,
2012-07-12, 02:13:04,VALID,917.62,VALID,0,VALID,97.229,VALID,0,VALID,18.4773,VALID,143,VALID,0,
2012-07-12, 02:14:04,VALID,917.607,VALID,0,VALID,97.2062,VALID,0,VALID,18.4968,VALID,143,VALID,0,
2012-07-12, 02:15:04,VALID,917.569,VALID,0,VALID,97.1909,VALID,0,VALID,18.4773,VALID,143,VALID,0,
2012-07-12, 02:16:04,VALID,917.559,VALID,0,VALID,97.1528,VALID,0,VALID,18.4578,VALID,143,VALID,0,
2012-07-12, 02:17:04,VALID,917.512,VALID,0,VALID,97.0842,VALID,0,VALID,18.4773,VALID,143,VALID,0,
2012-07-12, 02:18:04,VALID,917.491,VALID,0,VALID,96.9927,VALID,0,VALID,18.4773,VALID,143,VALID,0,
2012-07-12, 02:19:04,VALID,917.451,VALID,0,VALID,96.9012,VALID,0,VALID,18.4968,VALID,143,VALID,0,
2012-07-12, 02:20:04,VALID,917.462,VALID,0,VALID,96.7869,VALID,0,VALID,18.5358,VALID,143,VALID,0,
2012-07-12, 02:21:04,VALID,917.428,VALID,0,VALID,96.703,VALID,0,VALID,18.5748,VALID,143,VALID,0,
2012-07-12, 02:22:04,VALID,917.418,VALID,0,VALID,96.5124,VALID,0,VALID,18.5943,VALID,143,VALID,0,
2012-07-12, 02:23:04,VALID,917.41,VALID,0,VALID,96.4438,VALID,0,VALID,18.6138,VALID,143,VALID,0,
2012-07-12, 02:24:04,VALID,917.394,VALID,0,VALID,96.3905,VALID,0,VALID,18.5943,VALID,143,VALID,0,
2012-07-12, 02:25:04,VALID,917.383,VALID,0,VALID,96.3066,VALID,0,VALID,18.5943,VALID,143,VALID,0,
2012-07-12, 02:26:04,VALID,917.373,VALID,0,VALID,96.2151,VALID,0,VALID,18.5748,VALID,143,VALID,0,
2012-07-12, 02:27:04,VALID,917.336,VALID,0,VALID,96.1999,VALID,0,VALID,18.5943,VALID,143,VALID,0,
2012-07-12, 02:28:04,VALID,917.3,VALID,0,VALID,96.1313,VALID,0,VALID,18.5748,VALID,143,VALID,0,
2012-07-12, 02:29:04,VALID,917.31,VALID,0,VALID,96.0855,VALID,0,VALID,18.5553,VALID,143,VALID,0,
2012-07-12, 02:30:04,VALID,917.279,VALID,0,VALID,96.0398,VALID,0,VALID,18.5163,VALID,143,VALID,0,
2012-07-12, 02:31:04,VALID,917.269,VALID,0,VALID,96.0703,VALID,0,VALID,18.5163,VALID,143,VALID,0,
2012-07-12, 02:32:04,VALID,917.27,VALID,0,VALID,96.0932,VALID,0,VALID,18.5163,VALID,143,VALID,0,
2012-07-12, 02:33:04,VALID,917.245,VALID,0,VALID,96.0855,VALID,0,VALID,18.4968,VALID,143,VALID,0,
2012-07-12, 02:34:04,VALID,917.258,VALID,0,VALID,96.1313,VALID,0,VALID,18.4968,VALID,143,VALID,0,
2012-07-12, 02:35:04,VALID,917.227,VALID,0,VALID,96.1313,VALID,0,VALID,18.4578,VALID,143,VALID,0,
2012-07-12, 02:36:04,VALID,917.203,VALID,0,VALID,96.116,VALID,0,VALID,18.4369,VALID,143,VALID,0,
2012-07-12, 02:37:04,VALID,917.174,VALID,0,VALID,96.1846,VALID,0,VALID,18.4188,VALID,143,VALID,0,
2012-07-12, 02:38:04,VALID,917.174,VALID,0,VALID,96.2228,VALID,0,VALID,18.3798,VALID,143,VALID,0,
2012-07-12, 02:39:04,VALID,917.163,VALID,0,VALID,96.2533,VALID,0,VALID,18.3603,VALID,143,VALID,0,
2012-07-12, 02:40:04,VALID,917.136,VALID,0,VALID,96.2837,VALID,0,VALID,18.3018,VALID,143,VALID,0,
2012-07-12, 02:41:04,VALID,917.125,VALID,0,VALID,96.3676,VALID,0,VALID,18.3227,VALID,143,VALID,0,
2012-07-12, 02:42:04,VALID,917.099,VALID,0,VALID,96.3752,VALID,0,VALID,18.3032,VALID,143,VALID,0,
2012-07-12, 02:43:04,VALID,917.092,VALID,0,VALID,96.421,VALID,0,VALID,18.2642,VALID,143,VALID,0,
2012-07-12, 02:44:04,VALID,917.102,VALID,0,VALID,96.4743,VALID,0,VALID,18.2642,VALID,143,VALID,0,
2012-07-12, 02:45:04,VALID,917.041,VALID,0,VALID,96.4972,VALID,0,VALID,18.2447,VALID,143,VALID,0,
2012-07-12, 02:46:04,VALID,917.02,VALID,0,VALID,96.5201,VALID,0,VALID,18.2044,VALID,143,VALID,0,
2012-07-12, 02:47:04,VALID,917.013,VALID,0,VALID,96.5506,VALID,0,VALID,18.2447,VALID,143,VALID,0,
2012-07-12, 02:48:04,VALID,916.979,VALID,0,VALID,96.5963,VALID,0,VALID,18.1862,VALID,143,VALID,0,
2012-07-12, 02:49:04,VALID,916.964,VALID,0,VALID,96.6115,VALID,0,VALID,18.1862,VALID,143,VALID,0,
2012-07-12, 02:50:04,VALID,916.954,VALID,0,VALID,96.5887,VALID,0,VALID,18.2057,VALID,143,VALID,0,
2012-07-12, 02:51:04,VALID,916.92,VALID,0,VALID,96.5734,VALID,0,VALID,18.1849,VALID,143,VALID,0,
2012-07-12, 02:52:04,VALID,916.914,VALID,0,VALID,96.5811,VALID,0,VALID,18.2252,VALID,143,VALID,0,
2012-07-12, 02:53:04,VALID,916.917,VALID,0,VALID,96.5658,VALID,0,VALID,18.2252,VALID,143,VALID,0,
2012-07-12, 02:54:04,VALID,916.892,VALID,0,VALID,96.5048,VALID,0,VALID,18.2252,VALID,143,VALID,0,
2012-07-12, 02:55:04,VALID,916.91,VALID,0,VALID,96.4819,VALID,0.107441,VALID,18.2433,VALID,143,VALID,0,
2012-07-12, 02:56:04,VALID,916.909,VALID,0,VALID,96.4896,VALID,0,VALID,18.2628,VALID,143,VALID,0,
2012-07-12, 02:57:04,VALID,916.893,VALID,0,VALID,96.4743,VALID,0.107441,VALID,18.2628,VALID,143,VALID,0,
2012-07-12, 02:58:04,VALID,916.885,VALID,0,VALID,96.4819,VALID,0,VALID,18.2628,VALID,143,VALID,0,
2012-07-12, 02:59:04,VALID,916.868,VALID,0,VALID,96.4743,VALID,0.107441,VALID,18.2433,VALID,143,VALID,0,
2012-07-12, 03:00:04,VALID,916.895,VALID,0,VALID,96.5124,VALID,0.107441,VALID,18.2238,VALID,143,VALID,0,
2012-07-12, 03:01:04,VALID,916.868,VALID,0,VALID,96.5506,VALID,0.107441,VALID,18.2238,VALID,143,VALID,0,
2012-07-12, 03:02:04,VALID,916.854,VALID,0,VALID,96.5734,VALID,0.107441,VALID,18.2044,VALID,143,VALID,0,
2012-07-12, 03:03:04,VALID,916.877,VALID,0,VALID,96.5887,VALID,0.107441,VALID,18.203,VALID,143,VALID,0,
2012-07-12, 03:04:04,VALID,916.852,VALID,0,VALID,96.6344,VALID,0,VALID,18.2238,VALID,143,VALID,0,
2012-07-12, 03:05:04,VALID,916.835,VALID,0,VALID,96.6878,VALID,0,VALID,18.2238,VALID,143,VALID,0,
2012-07-12, 03:06:04,VALID,916.873,VALID,0,VALID,96.6878,VALID,0,VALID,18.2238,VALID,143,VALID,0,
2012-07-12, 03:07:04,VALID,916.855,VALID,0,VALID,96.6878,VALID,0.107441,VALID,18.2238,VALID,143,VALID,0,
2012-07-12, 03:08:04,VALID,916.833,VALID,0,VALID,96.6878,VALID,0,VALID,18.2044,VALID,143,VALID,0,
2012-07-12, 03:09:04,VALID,916.837,VALID,0,VALID,96.7716,VALID,0.107441,VALID,18.2044,VALID,143,VALID,0,
2012-07-12, 03:10:04,VALID,916.859,VALID,0,VALID,96.7411,VALID,0.107441,VALID,18.1849,VALID,143,VALID,0,
2012-07-12, 03:11:04,VALID,916.843,VALID,0,VALID,96.7411,VALID,0,VALID,18.1849,VALID,143,VALID,0,
2012-07-12, 03:12:04,VALID,916.831,VALID,0,VALID,96.7793,VALID,0.107441,VALID,18.1459,VALID,143,VALID,0,
2012-07-12, 03:13:04,VALID,916.829,VALID,0,VALID,96.886,VALID,0,VALID,18.1849,VALID,143,VALID,0,
2012-07-12, 03:14:04,VALID,916.829,VALID,0,VALID,96.9012,VALID,0.107441,VALID,18.1654,VALID,143,VALID,0,
2012-07-12, 03:15:04,VALID,916.827,VALID,0,VALID,96.886,VALID,0,VALID,18.1849,VALID,143,VALID,0,
2012-07-12, 03:16:04,VALID,916.817,VALID,0,VALID,96.8707,VALID,0,VALID,18.1654,VALID,143,VALID,0,
2012-07-12, 03:17:04,VALID,916.817,VALID,0,VALID,96.8707,VALID,0,VALID,18.1459,VALID,143,VALID,0,
2012-07-12, 03:18:04,VALID,916.822,VALID,0,VALID,96.9012,VALID,0,VALID,18.1264,VALID,143,VALID,0,
2012-07-12, 03:19:04,VALID,916.846,VALID,0,VALID,96.8936,VALID,0,VALID,18.1472,VALID,143,VALID,0,
2012-07-12, 03:20:04,VALID,916.816,VALID,0,VALID,96.9165,VALID,0,VALID,18.1264,VALID,143,VALID,0,
2012-07-12, 03:21:04,VALID,916.827,VALID,0,VALID,96.9622,VALID,0,VALID,18.1459,VALID,95,VALID,0,
2012-07-12, 03:22:04,VALID,916.806,VALID,0,VALID,96.9622,VALID,0.107441,VALID,18.1849,VALID,95,VALID,0,
2012-07-12, 03:23:04,VALID,916.807,VALID,0,VALID,96.9622,VALID,0,VALID,18.1654,VALID,95,VALID,0,
2012-07-12, 03:24:04,VALID,916.794,VALID,0,VALID,96.9622,VALID,0.107441,VALID,18.2044,VALID,96,VALID,0,
2012-07-12, 03:25:04,VALID,916.81,VALID,0,VALID,96.9698,VALID,0,VALID,18.1862,VALID,95,VALID,0,
2012-07-12, 03:26:04,VALID,916.827,VALID,0,VALID,96.9546,VALID,0,VALID,18.2057,VALID,95,VALID,0,
2012-07-12, 03:27:04,VALID,916.804,VALID,0,VALID,96.9241,VALID,0,VALID,18.2252,VALID,95,VALID,0,
2012-07-12, 03:28:04,VALID,916.8,VALID,0,VALID,96.9546,VALID,0,VALID,18.2057,VALID,95,VALID,0,
2012-07-12, 03:29:04,VALID,916.766,VALID,0,VALID,96.9622,VALID,0,VALID,18.1849,VALID,96,VALID,0,
2012-07-12, 03:30:04,VALID,916.748,VALID,0,VALID,96.9394,VALID,0,VALID,18.2447,VALID,95,VALID,0,
2012-07-12, 03:31:04,VALID,916.753,VALID,0,VALID,96.947,VALID,0,VALID,18.2252,VALID,95,VALID,0,
2012-07-12, 03:32:04,VALID,916.724,VALID,0,VALID,96.947,VALID,0,VALID,18.2044,VALID,95,VALID,0,
2012-07-12, 03:33:04,VALID,916.746,VALID,0,VALID,96.9775,VALID,0,VALID,18.2447,VALID,95,VALID,0,
2012-07-12, 03:34:04,VALID,916.703,VALID,0,VALID,96.9317,VALID,0,VALID,18.2642,VALID,95,VALID,0,
2012-07-12, 03:35:04,VALID,916.722,VALID,0,VALID,96.9089,VALID,0,VALID,18.3032,VALID,96,VALID,0,
2012-07-12, 03:36:04,VALID,916.677,VALID,0,VALID,96.7945,VALID,0,VALID,18.3422,VALID,95,VALID,0,
2012-07-12, 03:37:04,VALID,916.712,VALID,0,VALID,96.764,VALID,0,VALID,18.3617,VALID,95,VALID,0,
2012-07-12, 03:38:04,VALID,916.7,VALID,0,VALID,96.6954,VALID,0,VALID,18.3812,VALID,95,VALID,0,
2012-07-12, 03:39:04,VALID,916.702,VALID,0,VALID,96.6725,VALID,0,VALID,18.3617,VALID,96,VALID,0,
2012-07-12, 03:40:04,VALID,916.701,VALID,0,VALID,96.6497,VALID,0,VALID,18.3603,VALID,95,VALID,0,
2012-07-12, 03:41:04,VALID,916.687,VALID,0,VALID,96.6192,VALID,0,VALID,18.3798,VALID,95,VALID,0,
2012-07-12, 03:42:04,VALID,916.7,VALID,0,VALID,96.6039,VALID,0.107441,VALID,18.3408,VALID,96,VALID,0,
2012-07-12, 03:43:04,VALID,916.692,VALID,0,VALID,96.6039,VALID,0.107441,VALID,18.3993,VALID,95,VALID,0,
2012-07-12, 03:44:04,VALID,916.706,VALID,0,VALID,96.5582,VALID,0,VALID,18.3798,VALID,95,VALID,0,
2012-07-12, 03:45:04,VALID,916.699,VALID,0,VALID,96.5429,VALID,0,VALID,18.3993,VALID,95,VALID,0,
2012-07-12, 03:46:04,VALID,916.701,VALID,0,VALID,96.5201,VALID,0,VALID,18.3603,VALID,95,VALID,0,
2012-07-12, 03:47:04,VALID,916.659,VALID,0,VALID,96.4896,VALID,0,VALID,18.3603,VALID,95,VALID,0,
2012-07-12, 03:48:04,VALID,916.679,VALID,0,VALID,96.4667,VALID,0,VALID,18.3993,VALID,95,VALID,0,
2012-07-12, 03:49:04,VALID,916.662,VALID,0,VALID,96.3752,VALID,0,VALID,18.4174,VALID,95,VALID,0,
2012-07-12, 03:50:04,VALID,916.663,VALID,0,VALID,96.2837,VALID,0.107441,VALID,18.4773,VALID,96,VALID,0,
2012-07-12, 03:51:04,VALID,916.684,VALID,0,VALID,96.1389,VALID,0,VALID,18.5358,VALID,95,VALID,0,
2012-07-12, 03:52:04,VALID,916.67,VALID,0,VALID,95.9941,VALID,0.107441,VALID,18.5748,VALID,95,VALID,0,
2012-07-12, 03:53:04,VALID,916.697,VALID,0,VALID,95.8797,VALID,0,VALID,18.5943,VALID,95,VALID,0,
2012-07-12, 03:54:04,VALID,916.679,VALID,0,VALID,95.7501,VALID,0,VALID,18.5748,VALID,96,VALID,0,
2012-07-12, 03:55:04,VALID,916.636,VALID,0,VALID,95.6662,VALID,0,VALID,18.5734,VALID,96,VALID,0,
2012-07-12, 03:56:04,VALID,916.681,VALID,0,VALID,95.6586,VALID,0,VALID,18.5748,VALID,96,VALID,0,
2012-07-12, 03:57:04,VALID,916.677,VALID,0.2,VALID,95.6586,VALID,0.107441,VALID,18.5762,VALID,96,VALID,0,